Miscellaneous Local Product
Issued by NWS North Platte, NE

Home | Current Version | Previous Version | Graphics & Text | Print | Product List | Glossary On
Versions: 1 2 3 4 5 6 7 8 9 10 11 12 13 14 15 16 17 18 19 20 21 22 23 24 25 26 27 28 29 30 31 32 33 34 35 36 37 38 39 40 41 42 43 44 45 46 47 48 49 50
000
AXUS43 KLBF 241610
MISLBF


WESTERN AND NORTH CENTRAL NEBRASKA HOURLY WEATHER ROUNDUP
NATIONAL WEATHER SERVICE NORTH PLATTE NE
1100 AM CDT FRI OCT 24 2014

***STATIONS NOT REPORTING VARIABLES SUCH AS SKY/WEATHER OR
PRESSURE ARE PROVIDED BY THE NEBRASKA DEPARTMENT OF
ROADS...RAWS...AND APRS NETWORKS...AND ARE NOT UNDER
NATIONAL WEATHER SERVICE QUALITY CONTROL***

...OBSERVATIONS IN AND NEAR THE EASTERN PANHANDLE OF NEBRASKA...

CITY           SKY/WX    TMP DP  RH WIND       PRES   REMARKS
PINE RIDGE     PTSUNNY   62  35  36 W5        30.03R
CHADRON        PTSUNNY   63  36  36 W8        30.04R
ALLIANCE       PTSUNNY   63  39  41 W14       30.06R
SIDNEY         CLOUDY    64  40  41 NW6       30.12R
WHITECLAY        N/A     65  32  29 W10         N/A
RUSHVILLE        N/A     70  28  21 NW18        N/A
CRESCENT LAKE    N/A     68  37  31 W13         N/A
LISCO            N/A     62  35  37 W9          N/A
BIG SPRINGS      N/A     55  40  57 W6          N/A
LEWELLEN         N/A     54  41  60 W3          N/A
$$

...OBSERVATIONS IN NORTH CENTRAL NEBRASKA...

CITY           SKY/WX    TMP DP  RH WIND       PRES   REMARKS
VALENTINE      CLOUDY    57  40  52 W5        29.97R
THEDFORD       CLOUDY    64  41  42 W10       30.01R
AINSWORTH      CLOUDY    58  39  49 W5        29.97S
O`NEILL        CLOUDY    58  48  68 W3        29.96R
ORD            CLOUDY    54  49  83 NW5       29.96R
BROKEN BOW     CLOUDY    65  44  46 W10       29.98R
BROWNLEE         N/A     66  38  35 W9          N/A
SPRINGVIEW       N/A     50  43  77 CALM        N/A
BREWSTER         N/A     58  44  58 W8          N/A
ROSE             N/A     62  48  59 CALM        N/A
NEWPORT          N/A     60  44  54 W6          N/A
SARGENT          N/A     54  48  81 CALM        N/A
COMSTOCK         N/A     62  52  68 CALM        N/A
CHAMBERS         N/A     61  49  65 NW3         N/A
EWING            N/A     57  54  90 CALM        N/A
$$

...OBSERVATIONS IN SOUTHWEST NEBRASKA AND FAR NORTHEAST COLORADO...

CITY           SKY/WX    TMP DP  RH WIND       PRES   REMARKS
WRAY           FAIR      74  35  24 W7        30.10R
HOLYOKE        FAIR      73  37  27 W3        30.09R
IMPERIAL       CLOUDY    62  38  40 W6        30.07R
OGALLALA       CLOUDY    59  42  53 W8        30.06S
NORTH PLATTE   CLOUDY    56  44  64 NW9       30.03R
MCCOOK         PTSUNNY   62  45  53 W12       30.04R
LEXINGTON      CLOUDY    57  49  73 NW8       30.01R
PAXTON           N/A     49  42  77 W3          N/A
SUTHERLAND       N/A     53  40  61 W8          N/A
BRADY            N/A     55  45  68 CALM        N/A
GOTHENBURG       N/A     49  41  75 W3          N/A
CALLAWAY         N/A     55  45  69 W5          N/A
$$

...SOME WEATHER OBSERVATIONS FROM AROUND THE REGION...

CITY           SKY/WX    TMP DP  RH WIND       PRES   REMARKS
DENVER         CLOUDY    64  28  25 SW8       30.20R
LARAMIE        MOSUNNY   59  26  28 SW22G31   30.27S
CHEYENNE       CLOUDY    60  28  29 W9        30.23R
SCOTTSBLUFF    PTSUNNY   64  32  30 NW12      30.09R
RAPID CITY     MOSUNNY   67  36  31 NW9       30.00R
PIERRE         MOSUNNY   55  35  47 W7        29.92R
WINNER           N/A     60  36  40 CALM      29.95
SIOUX FALLS    CLOUDY    58  50  75 NW5       29.90R
OMAHA          CLOUDY    64  59  83 S8        29.95R
GRAND ISLAND   CLOUDY    61  52  72 SW8       29.97R
KANSAS CITY    CLOUDY    62  59  90 SW9       30.04S
WICHITA        PTSUNNY   67  59  75 SW12      30.07S
HAYS           PTSUNNY   63  55  77 SW7       30.05R
LIBERAL        SUNNY     66  55  68 CALM      30.14R
GOODLAND       MOSUNNY   74  43  32 W5        30.10R
$$



USA.gov is the U.S. government's official web portal to all federal, state and local government web resources and services.